Regional Weather Roundup
Issued by NWS Kansas City/Pleasant Hill, MO

Home | Current Version | Previous Version | Graphics & Text | Print | Product List | Glossary Off
Versions: 1 2 3 4 5 6 7 8 9 10 11 12 13 14 15 16 17 18 19 20 21 22 23 24 25 26 27

000
ASUS43 KEAX 260710
RWREAX

WEATHER ROUNDUP FOR EASTERN KANSAS AND NORTHWEST MISSOURI
NATIONAL WEATHER SERVICE KANSAS CITY/PLEASANT HILL MO
200 AM CDT WED APR 26 2017

KSZ040-057-103>105-MOZ028-029-037-043-260800-
...KANSAS CITY METROPOLITAN AREA...

CITY           SKY/WX    TMP DP  RH WIND       PRES   REMARKS
K.C. INTL      LGT RAIN  48  47  96 NW9       29.51F
K.C. DOWNTOWN  LGT RAIN  51  48  89 N8        29.48F
LEES SUMMIT    LGT RAIN  52  51  97 N13       29.48F
OLATHE - IXD   LGT RAIN  48  47  96 N20       29.49F
OLATHE - OJC   LGT RAIN  49  49 100 N12       29.48F FOG
LAWRENCE       LGT RAIN  48  46  93 NW13      29.53S

$$

MOZ001>008-011>017-020>025-030>033-038>040-044>046-053-054-260800-
...NORTHERN AND CENTRAL MISSOURI...

CITY           SKY/WX    TMP DP  RH WIND       PRES   REMARKS
ST. JOSEPH     LGT RAIN  47  45  93 NW14      29.54R
MOSBY          LGT RAIN  50  48  93 NW9       29.49F
WHITEMAN AFB   TSTM      63  63 100 W8        29.48R FOG
CLINTON        NOT AVBL
SEDALIA        RAIN      63  63 100 W6        29.48R FOG
WARSAW         NOT AVBL
CHILLICOTHE      N/A     53  50  89 VRB6      29.49R
KIRKSVILLE     CLOUDY    60  56  86 E3        29.43F

$$

MOZ041-047>049-056>058-063>065-088>090-097-260800-
...EASTERN AND SOUTHERN MISSOURI...

CITY           SKY/WX    TMP DP  RH WIND       PRES   REMARKS
ST. LOUIS INTL PTCLDY    71  51  49 S10       29.49F
SPIRIT OF STL  PTCLDY    70  53  54 S7        29.47F
COLUMBIA       CLOUDY    64  57  78 N6        29.46F
JEFFERSON CITY CLOUDY    70  55  59 SE7       29.44F
ROLLA          PTCLDY    66  55  67 S12       29.47F
OSAGE BEACH    CLOUDY    68  57  68 W12       29.49R
SPRINGFIELD    TSTM      58  57  97 SW12      29.60R FOG
BRANSON        CLOUDY    66  61  82 W21G30    29.64R HAZE
JOPLIN         RAIN      61  60  97 E9        29.49F
WEST PLAINS    MOCLDY    66  55  67 S6        29.55R

$$

IAZ060-094-KSZ022-034>040-054-083-096-NEZ052-066-093-260800-
...KANSAS...SOUTHEAST NEBRASKA AND IOWA...

CITY           SKY/WX    TMP DP  RH WIND       PRES   REMARKS
TOPEKA         CLOUDY    47  45  93 N13       29.54F
MANHATTAN      CLOUDY    45  38  76 VRB7G18   29.61F
EMPORIA        LGT RAIN  46  45  96 NW15G24   29.56R
CHANUTE        CLOUDY    52  49  89 N13       29.50R
WICHITA        LGT RAIN  46  42  86 N17       29.59R
OMAHA          CLOUDY    41  36  82 N17       29.59R WCI  32
LINCOLN        CLOUDY    39  34  82 N20       29.63S WCI  29
FALLS CITY     CLOUDY    44  39  82 NW16G25   29.57R
LAMONI         LGT RAIN  46  45  96 NW13      29.47S
DES MOINES     LGT RAIN  48  45  89 NW13      29.47F

$$





USA.gov is the U.S. government's official web portal to all federal, state and local government web resources and services.